N8SDR Weather Reports


time (UTC)temp
C
wind
direction
speed
KPH
gust
KPH
rain 1hr
cm
rain 24hr
cm
rain mn
cm
humidity
%
barometer
mb
20260902212226 36 282 4.8 8.0 0.00 0.00 0.00 57 1013.0
20260902211722 36 109 0.0 1.6 0.00 0.00 0.00 56 1013.0
20260902211218 36 319 0.0 3.2 0.00 0.00 0.00 57 1013.1
20260902210712 36 102 0.0 4.8 0.00 0.00 0.00 56 1013.2
20260902210208 36 200 0.0 4.8 0.00 0.00 0.00 57 1013.4
20260902205706 36 192 0.0 9.7 0.00 0.00 0.00 56 1013.1
20260902205201 36 191 8.0 12.9 0.00 0.00 0.00 57 1013.3
20260902204656 35 326 0.0 4.8 0.00 0.00 0.00 59 1013.3
20260902204150 36 300 1.6 4.8 0.00 0.00 0.00 58 1013.3
20260902203645 36 220 1.6 9.7 0.00 0.00 0.00 56 1013.3
20260902203140 36 251 1.6 8.0 0.00 0.00 0.00 56 1013.3
20260902202635 35 187 6.4 9.7 0.00 0.00 0.00 57 1013.2
20260902202132 36 195 12.9 14.5 0.00 0.00 0.00 56 1013.4
20260902201628 35 333 0.0 4.8 0.00 0.00 0.00 58 1013.1
20260902201127 36 4 1.6 3.2 0.00 0.00 0.00 56 1013.3
20260902200622 36 185 0.0 8.0 0.00 0.00 0.00 57 1013.3
20260902200118 36 238 0.0 3.2 0.00 0.00 0.00 57 1013.2
20260902195614 36 341 1.6 3.2 0.00 0.00 0.00 56 1013.3
20260902195113 35 257 0.0 11.3 0.00 0.00 0.00 59 1013.6
20260902194612 35 191 3.2 9.7 0.00 0.00 0.00 57 1013.2
20260902194108 36 205 4.8 8.0 0.00 0.00 0.00 57 1013.4
20260902193604 35 219 4.8 16.1 0.00 0.00 0.00 58 1013.8
20260902193103 35 158 0.0 11.3 0.00 0.00 0.00 57 1013.6
20260902192601 36 176 1.6 8.0 0.00 0.00 0.00 58 1013.7
20260902192100 35 202 3.2 12.9 0.00 0.00 0.00 57 1013.8
20260902191555 35 343 1.6 1.6 0.00 0.00 0.00 56 1013.9
20260902191049 36 353 1.6 11.3 0.00 0.00 0.00 58 1013.9
20260902190546 35 212 0.0 9.7 0.00 0.00 0.00 57 1013.9
20260902190041 35 111 0.0 9.7 0.00 0.00 0.00 56 1014.1
20260902185537 35 304 0.0 3.2 0.00 0.00 0.00 58 1014.0
20260902185032 35 306 1.6 4.8 0.00 0.00 0.00 59 1014.2
20260902184527 35 353 4.8 9.7 0.00 0.00 0.00 58 1014.2
20260902184022 36 166 0.0 4.8 0.00 0.00 0.00 57 1014.1
20260902183519 36 284 1.6 11.3 0.00 0.00 0.00 58 1014.1
20260902183015 35 269 0.0 4.8 0.00 0.00 0.00 59 1014.0
20260902182511 35 179 3.2 4.8 0.00 0.00 0.00 58 1014.2
20260902182006 35 329 0.0 4.8 0.00 0.00 0.00 59 1014.2
20260902181502 36 176 0.0 9.7 0.00 0.00 0.00 56 1014.3
20260902180956 36 298 0.0 3.2 0.00 0.00 0.00 58 1014.3
20260902180457 35 312 0.0 3.2 0.00 0.00 0.00 55 1014.4
20260902175952 35 160 1.6 4.8 0.00 0.00 0.00 57 1014.3
20260902175447 35 300 0.0 16.1 0.00 0.00 0.00 58 1014.2
20260902174943 35 190 8.0 16.1 0.00 0.00 0.00 56 1014.4
20260902174439 35 310 0.0 4.8 0.00 0.00 0.00 58 1014.4
20260902173935 33 267 0.0 8.0 0.00 0.00 0.00 61 1014.8
20260902173434 34 4 0.0 8.0 0.00 0.00 0.00 59 1014.6
20260902172929 34 331 0.0 0.0 0.00 0.00 0.00 61 1014.7
20260902172429 35 289 1.6 4.8 0.00 0.00 0.00 61 1014.6
20260902171924 35 258 3.2 8.0 0.00 0.00 0.00 59 1015.0
20260902171419 35 176 8.0 24.1 0.00 0.00 0.00 61 1014.9
20260902170915 35 226 1.6 4.8 0.00 0.00 0.00 61 1014.8
20260902170410 33 102 0.0 3.2 0.00 0.00 0.00 64 1014.6
20260902165906 33 286 3.2 8.0 0.00 0.00 0.00 64 1014.8
20260902165405 33 307 0.0 3.2 0.00 0.00 0.00 65 1014.6
20260902164900 33 294 3.2 4.8 0.00 0.00 0.00 64 1014.7
20260902164355 34 227 1.6 11.3 0.00 0.00 0.00 66 1014.8
20260902163854 34 220 8.0 9.7 0.00 0.00 0.00 66 1014.9
20260902163349 34 173 1.6 11.3 0.00 0.00 0.00 66 1014.9
20260902162847 33 262 4.8 8.0 0.00 0.00 0.00 63 1014.9
20260902162342 34 283 0.0 1.6 0.00 0.00 0.00 62 1014.7
20260902161837 33 167 0.0 4.8 0.00 0.00 0.00 63 1014.9
20260902161332 33 205 1.6 4.8 0.00 0.00 0.00 68 1014.9
20260902160828 34 233 4.8 9.7 0.00 0.00 0.00 65 1014.9
20260902160323 33 293 0.0 3.2 0.00 0.00 0.00 67 1014.8
20260902155821 32 209 0.0 8.0 0.00 0.00 0.00 67 1014.9
20260902155320 33 294 1.6 4.8 0.00 0.00 0.00 65 1015.1
20260902154816 33 170 1.6 4.8 0.00 0.00 0.00 64 1014.9
20260902154311 33 218 6.4 8.0 0.00 0.00 0.00 67 1014.9
20260902153810 33 271 0.0 4.8 0.00 0.00 0.00 67 1014.8
20260902153304 33 161 0.0 0.0 0.00 0.00 0.00 68 1014.8
20260902152800 33 342 0.0 1.6 0.00 0.00 0.00 68 1015.2
20260902152256 32 227 0.0 3.2 0.00 0.00 0.00 68 1014.9
20260902151756 32 253 0.0 4.8 0.00 0.00 0.00 70 1015.2
20260902151251 32 249 6.4 11.3 0.00 0.00 0.00 71 1015.0
20260902150746 32 317 0.0 3.2 0.00 0.00 0.00 70 1015.1
20260902150243 32 192 1.6 3.2 0.00 0.00 0.00 71 1015.1
20260902145741 31 327 4.8 4.8 0.00 0.00 0.00 74 1015.1
20260902145237 31 8 0.0 0.0 0.00 0.00 0.00 73 1015.2
20260902144732 31 197 0.0 1.6 0.00 0.00 0.00 72 1015.1
20260902144228 31 290 0.0 4.8 0.00 0.00 0.00 75 1015.1
20260902143723 31 204 0.0 3.2 0.00 0.00 0.00 73 1015.3
20260902143218 31 207 0.0 8.0 0.00 0.00 0.00 75 1015.2
20260902142714 30 152 0.0 0.0 0.00 0.00 0.00 74 1015.1
20260902142209 30 215 3.2 11.3 0.00 0.00 0.00 75 1015.1
20260902141704 30 300 1.6 8.0 0.00 0.00 0.00 75 1015.3
20260902141159 30 239 0.0 0.0 0.00 0.00 0.00 75 1015.1
20260902140654 30 217 1.6 1.6 0.00 0.00 0.00 74 1014.9
20260902140149 30 192 0.0 3.2 0.00 0.00 0.00 75 1014.9
20260902135648 30 160 0.0 0.0 0.00 0.00 0.00 75 1014.8
20260902135143 30 228 0.0 4.8 0.00 0.00 0.00 76 1015.2
20260902134639 29 187 0.0 3.2 0.00 0.00 0.00 78 1015.0
20260902134138 29 301 0.0 3.2 0.00 0.00 0.00 78 1015.3
20260902133633 29 200 4.8 8.0 0.00 0.00 0.00 79 1015.1
20260902133128 28 286 0.0 3.2 0.00 0.00 0.00 80 1014.8
20260902132623 28 33 0.0 0.0 0.00 0.00 0.00 83 1015.0
20260902132118 27 197 0.0 0.0 0.00 0.00 0.00 83 1014.9
20260902131614 27 165 0.0 0.0 0.00 0.00 0.00 85 1014.8
20260902131109 27 178 3.2 3.2 0.00 0.00 0.00 84 1015.1
20260902130606 27 209 1.6 1.6 0.00 0.00 0.00 86 1015.1
20260902130101 26 199 0.0 1.6 0.00 0.00 0.00 87 1015.1
20260902125556 26 191 0.0 0.0 0.00 0.00 0.00 88 1015.0
20260902125051 26 206 0.0 1.6 0.00 0.00 0.00 89 1015.1
20260902124548 26 178 1.6 3.2 0.00 0.00 0.00 89 1015.1
20260902124048 25 213 0.0 1.6 0.00 0.00 0.00 90 1014.9
20260902123544 25 182 0.0 1.6 0.00 0.00 0.00 91 1014.9
20260902123044 25 204 1.6 3.2 0.00 0.00 0.00 91 1015.0
20260902122538 25 238 0.0 0.0 0.00 0.00 0.00 92 1014.9
20260902122034 25 188 0.0 0.0 0.00 0.00 0.00 93 1014.9
20260902121534 24 169 0.0 0.0 0.00 0.00 0.00 94 1014.7
20260902121029 23 194 0.0 0.0 0.00 0.00 0.00 96 1015.0
20260902120525 23 195 0.0 0.0 0.00 0.00 0.00 97 1014.8
20260902120021 23 186 0.0 0.0 0.00 0.00 0.00 98 1014.8
20260902115516 23 218 0.0 0.0 0.00 0.00 0.00 99 1014.9
20260902115013 23 184 0.0 0.0 0.00 0.00 0.00 99 1015.0
20260902114508 23 193 0.0 0.0 0.00 0.00 0.00 99 1014.6
20260902114008 23 218 0.0 0.0 0.00 0.00 0.00 99 1014.5
20260902113503 23 175 0.0 0.0 0.00 0.00 0.00 99 1014.6
20260902113004 22 89 0.0 0.0 0.00 0.00 0.00 99 1014.5
20260902112459 22 89 0.0 0.0 0.00 0.00 0.00 99 1014.5
20260902111955 22 89 0.0 0.0 0.00 0.00 0.00 99 1014.4
20260902111452 22 89 0.0 0.0 0.00 0.00 0.00 99 1014.2
20260902110947 22 95 0.0 0.0 0.00 0.00 0.00 99 1014.3
20260902110443 22 95 0.0 0.0 0.00 0.00 0.00 99 1014.4
20260902105938 22 95 0.0 0.0 0.00 0.00 0.00 99 1014.4
20260902105433 22 95 0.0 0.0 0.00 0.00 0.00 99 1014.1
20260902104927 22 91 0.0 0.0 0.00 0.00 0.00 99 1014.3
20260902104423 22 78 0.0 0.0 0.00 0.00 0.00 99 1014.5
20260902103923 22 36 0.0 0.0 0.00 0.00 0.00 99 1014.5
20260902103418 22 34 0.0 0.0 0.00 0.00 0.00 99 1014.4
20260902102913 22 89 0.0 0.0 0.00 0.00 0.00 99 1014.4
20260902102410 23 100 0.0 0.0 0.00 0.00 0.00 99 1014.4
20260902101907 23 123 0.0 0.0 0.00 0.00 0.00 99 1014.3
20260902101401 23 147 0.0 0.0 0.00 0.00 0.00 99 1014.4
20260902100900 23 144 0.0 0.0 0.00 0.00 0.00 99 1014.4
20260902100400 23 156 0.0 0.0 0.00 0.00 0.00 99 1014.1
20260902095855 23 42 0.0 0.0 0.00 0.00 0.00 99 1014.4
20260902095354 23 152 0.0 0.0 0.00 0.00 0.00 99 1014.2
20260902094849 23 153 0.0 0.0 0.00 0.00 0.00 99 1014.3
20260902094345 23 167 0.0 0.0 0.00 0.00 0.00 99 1014.5
20260902093844 23 164 0.0 0.0 0.00 0.00 0.00 99 1014.6
20260902093340 23 148 0.0 0.0 0.00 0.00 0.00 99 1014.4
20260902092838 23 150 0.0 0.0 0.00 0.00 0.00 99 1014.5
20260902092334 23 101 0.0 0.0 0.00 0.00 0.00 99 1014.4
20260902091829 23 115 0.0 0.0 0.00 0.00 0.00 99 1014.2
20260902091324 23 43 0.0 0.0 0.00 0.00 0.00 99 1014.2
20260902090821 23 83 0.0 0.0 0.00 0.00 0.00 99 1014.3
20260902090320 23 16 0.0 0.0 0.00 0.00 0.00 99 1014.1
20260902085819 23 15 0.0 0.0 0.00 0.00 0.00 99 1014.1
20260902085315 23 352 0.0 0.0 0.00 0.00 0.00 99 1014.1
20260902084810 23 13 0.0 0.0 0.00 0.00 0.00 99 1014.1
20260902084307 23 13 0.0 0.0 0.00 0.00 0.00 99 1013.7
20260902083802 23 55 0.0 0.0 0.00 0.00 0.00 99 1013.8
20260902083302 23 174 0.0 0.0 0.00 0.00 0.00 99 1013.4
20260902082756 23 68 0.0 0.0 0.00 0.00 0.00 99 1013.4
20260902082253 23 44 0.0 0.0 0.00 0.00 0.00 99 1013.4
20260902081749 23 7 0.0 0.0 0.00 0.00 0.00 99 1013.6
20260902081245 23 328 0.0 0.0 0.00 0.00 0.00 99 1013.8
20260902080739 23 346 0.0 0.0 0.00 0.00 0.00 99 1013.4
20260902080237 23 7 0.0 0.0 0.00 0.00 0.00 99 1013.7
20260902075736 23 333 0.0 0.0 0.00 0.00 0.00 99 1013.7
20260902075232 23 13 0.0 0.0 0.00 0.00 0.00 99 1013.8
20260902074732 23 342 0.0 0.0 0.00 0.00 0.00 99 1013.6
20260902074227 23 358 0.0 0.0 0.00 0.00 0.00 99 1013.3
20260902073722 23 0 0.0 0.0 0.00 0.00 0.00 99 1013.6
20260902073218 23 0 0.0 0.0 0.00 0.00 0.00 99 1013.2
20260902072714 23 0 0.0 0.0 0.00 0.00 0.00 99 1013.3
20260902072211 23 0 0.0 0.0 0.00 0.00 0.00 99 1013.4
20260902071706 23 3 0.0 0.0 0.00 0.00 0.00 99 1013.3
20260902071201 23 40 0.0 0.0 0.00 0.00 0.00 99 1013.3
20260902070658 23 19 0.0 0.0 0.00 0.00 0.00 99 1013.3
20260902070157 23 19 0.0 0.0 0.00 0.00 0.00 98 1013.4
20260902065655 23 19 0.0 0.0 0.00 0.00 0.00 98 1013.6
20260902065152 23 19 0.0 0.0 0.00 0.00 0.00 98 1013.4
20260902064647 23 20 0.0 0.0 0.00 0.00 0.00 98 1013.1
20260902064142 23 20 0.0 0.0 0.00 0.00 0.00 98 1013.6
20260902063638 23 14 0.0 0.0 0.00 0.00 0.00 97 1013.0
20260902063132 23 79 0.0 0.0 0.00 0.00 0.00 97 1013.3
20260902062631 23 80 0.0 0.0 0.00 0.00 0.00 97 1013.3
20260902062127 23 64 0.0 0.0 0.00 0.00 0.00 97 1013.3
20260902061626 24 63 0.0 0.0 0.00 0.00 0.00 96 1013.3
20260902061122 24 63 0.0 0.0 0.00 0.00 0.00 96 1013.3
20260902060618 24 63 0.0 0.0 0.00 0.00 0.00 96 1013.2
20260902060114 24 64 0.0 0.0 0.00 0.00 0.00 96 1013.4
20260902055610 24 63 0.0 0.0 0.00 0.00 0.00 96 1013.4
20260902055105 24 71 0.0 0.0 0.00 0.00 0.00 96 1013.3
20260902054600 24 63 0.0 0.0 0.00 0.00 0.00 96 1013.3
20260902054056 24 63 0.0 0.0 0.00 0.00 0.00 96 1013.3
20260902053551 24 63 0.0 0.0 0.00 0.00 0.00 96 1013.4
20260902053045 24 63 0.0 0.0 0.00 0.00 0.00 96 1013.4
20260902052539 24 63 0.0 0.0 0.00 0.00 0.00 96 1013.6
20260902052035 25 63 0.0 0.0 0.00 0.00 0.00 95 1013.6
20260902051535 25 63 0.0 0.0 0.00 0.00 0.00 95 1013.3
20260902051033 25 63 0.0 0.0 0.00 0.00 0.00 95 1013.7
20260902050528 25 63 0.0 0.0 0.00 0.00 0.00 94 1013.4
20260902050024 25 63 0.0 0.0 0.00 0.00 0.00 94 1013.8
20260902045520 25 63 0.0 0.0 0.00 0.00 0.00 94 1013.3
20260902045016 25 63 0.0 0.0 0.00 0.00 0.00 93 1013.4
20260902044516 25 63 0.0 0.0 0.00 0.00 0.00 93 1013.4
20260902044012 25 63 0.0 0.0 0.00 0.00 0.00 93 1013.6
20260902043507 25 63 0.0 0.0 0.00 0.00 0.00 93 1013.2
20260902043007 25 75 0.0 0.0 0.00 0.00 0.00 92 1013.4
20260902042501 25 75 0.0 0.0 0.00 0.00 0.00 92 1013.6
20260902041956 25 75 0.0 0.0 0.00 0.00 0.00 92 1013.2
20260902041450 25 75 0.0 0.0 0.00 0.00 0.00 92 1013.4
20260902040945 25 75 0.0 0.0 0.00 0.00 0.00 91 1013.6
20260902040445 25 75 0.0 0.0 0.00 0.00 0.00 91 1013.6
20260902035943 25 75 0.0 0.0 0.00 0.00 0.00 91 1013.6
20260902035438 26 75 0.0 0.0 0.00 0.00 0.00 90 1013.7
20260902034933 26 75 0.0 0.0 0.00 0.00 0.00 90 1013.6
20260902034427 26 75 0.0 0.0 0.00 0.00 0.00 89 1013.6
20260902033926 26 75 0.0 0.0 0.00 0.00 0.00 89 1013.7
20260902033420 26 75 0.0 0.0 0.00 0.00 0.00 88 1013.4
20260902032920 26 75 0.0 0.0 0.00 0.00 0.00 88 1013.6
20260902032414 26 75 0.0 0.0 0.00 0.00 0.00 89 1013.4
20260902031909 26 75 0.0 0.0 0.00 0.00 0.00 89 1013.6
20260902031405 26 75 0.0 0.0 0.00 0.00 0.00 89 1013.6
20260902030901 26 75 0.0 0.0 0.00 0.00 0.00 89 1013.4
20260902030354 26 75 0.0 0.0 0.00 0.00 0.00 89 1013.4
20260902025854 26 75 0.0 0.0 0.00 0.00 0.00 88 1013.6
20260902025349 26 75 0.0 0.0 0.00 0.00 0.00 88 1013.6
20260902024843 26 75 0.0 0.0 0.00 0.00 0.00 88 1013.7
20260902024340 26 75 0.0 0.0 0.00 0.00 0.00 88 1013.4
20260902023834 26 75 0.0 0.0 0.00 0.00 0.00 87 1013.6
20260902023330 26 75 0.0 0.0 0.00 0.00 0.00 87 1013.6
20260902022829 26 75 0.0 0.0 0.00 0.00 0.00 86 1013.6
20260902022325 27 75 0.0 0.0 0.00 0.00 0.00 85 1013.6
20260902021821 27 75 0.0 0.0 0.00 0.00 0.00 85 1013.7
20260902021315 27 76 0.0 0.0 0.00 0.00 0.00 85 1013.7
20260902020811 27 325 0.0 0.0 0.00 0.00 0.00 85 1013.6
20260902020307 27 326 0.0 0.0 0.00 0.00 0.00 84 1013.6
20260902015802 27 325 0.0 0.0 0.00 0.00 0.00 84 1013.4
20260902015258 27 327 0.0 0.0 0.00 0.00 0.00 83 1013.6
20260902014754 27 326 0.0 0.0 0.00 0.00 0.00 83 1013.3
20260902014250 27 14 0.0 0.0 0.00 0.00 0.00 82 1013.6
20260902013748 28 172 0.0 0.0 0.00 0.00 0.00 81 1013.6
20260902013244 28 171 0.0 0.0 0.00 0.00 0.00 80 1013.4
20260902012739 28 172 0.0 0.0 0.00 0.00 0.00 78 1013.2
20260902012235 29 172 0.0 0.0 0.00 0.00 0.00 76 1013.3
20260902011731 30 172 0.0 0.0 0.00 0.00 0.00 74 1013.3
20260902011230 30 172 0.0 0.0 0.00 0.00 0.00 73 1013.3
20260902010729 30 173 0.0 0.0 0.00 0.00 0.00 72 1013.0
20260902010226 30 171 0.0 0.0 0.00 0.00 0.00 72 1013.1
20260902005724 30 186 0.0 0.0 0.00 0.00 0.00 71 1013.2
20260902005220 30 173 0.0 0.0 0.00 0.00 0.00 72 1013.0
20260902004719 30 221 0.0 1.6 0.00 0.00 0.00 72 1013.0
20260902004214 30 180 0.0 0.0 0.00 0.00 0.00 72 1012.9
20260902003710 30 151 0.0 0.0 0.00 0.00 0.00 72 1012.8
20260902003205 30 170 0.0 0.0 0.00 0.00 0.00 72 1013.2
20260902002701 31 162 0.0 0.0 0.00 0.00 0.00 71 1013.2
20260902002201 31 180 0.0 0.0 0.00 0.00 0.00 70 1013.2
20260902001656 31 197 0.0 0.0 0.00 0.00 0.00 69 1013.3
20260902001155 31 165 0.0 0.0 0.00 0.00 0.00 69 1013.3
20260902000651 31 201 0.0 0.0 0.00 0.00 0.00 68 1013.3
20260902000146 32 237 0.0 1.6 0.00 0.00 0.00 67 1013.3
20260901235646 32 198 0.0 3.2 0.00 0.00 0.00 66 1013.4
20260901235141 32 210 0.0 0.0 0.00 0.00 0.00 66 1013.6
20260901234640 32 268 0.0 0.0 0.00 0.00 0.00 65 1013.7
20260901234135 32 228 0.0 0.0 0.00 0.00 0.00 65 1013.7
20260901233630 32 229 1.6 8.0 0.00 0.00 0.00 63 1013.3
20260901233126 33 235 0.0 3.2 0.00 0.00 0.00 63 1013.6
20260901232626 33 199 0.0 3.2 0.00 0.00 0.00 62 1013.9
20260901232121 33 221 3.2 8.0 0.00 0.00 0.00 61 1013.7
20260901231618 33 194 0.0 3.2 0.00 0.00 0.00 60 1013.4
20260901231114 33 171 0.0 1.6 0.00 0.00 0.00 60 1013.6
20260901230610 33 181 0.0 0.0 0.00 0.00 0.00 60 1013.6
20260901230109 33 51 0.0 0.0 0.00 0.00 0.00 60 1013.6
20260901225605 33 204 0.0 0.0 0.00 0.00 0.00 58 1013.7
20260901225104 33 173 0.0 0.0 0.00 0.00 0.00 58 1013.7
20260901224600 33 266 0.0 0.0 0.00 0.00 0.00 58 1013.6
20260901224056 33 200 3.2 9.7 0.00 0.00 0.00 58 1013.7
20260901223552 34 24 0.0 3.2 0.00 0.00 0.00 58 1013.7
20260901223047 34 232 0.0 3.2 0.00 0.00 0.00 58 1013.7
20260901222543 34 343 0.0 0.0 0.00 0.00 0.00 58 1013.6
20260901222038 35 187 3.2 3.2 0.00 0.00 0.00 58 1013.9
20260901221535 35 201 1.6 4.8 0.00 0.00 0.00 56 1013.6
20260901221030 35 198 0.0 8.0 0.00 0.00 0.00 56 1013.7
20260901220529 35 351 0.0 0.0 0.00 0.00 0.00 54 1013.7
20260901220028 35 326 0.0 3.2 0.00 0.00 0.00 54 1013.4
20260901215526 35 171 1.6 1.6 0.00 0.00 0.00 55 1013.7
20260901215021 35 8 0.0 0.0 0.00 0.00 0.00 54 1013.6
20260901214520 35 300 0.0 8.0 0.00 0.00 0.00 56 1013.7
20260901214019 35 210 3.2 11.3 0.00 0.00 0.00 55 1013.4
20260901213514 35 302 0.0 9.7 0.00 0.00 0.00 55 1013.8
20260901213008 35 273 9.7 14.5 0.00 0.00 0.00 55 1013.6
20260901212503 36 193 0.0 0.0 0.00 0.00 0.00 54 1013.7